Location: Newark
(51.3318°N, 0.0053°E)
Time: 05:55:57
(UTC+00:00)

Envisat - Pass Details

Date: 27 January 2022
Orbit: 764 x 765 km, 98.2° (Epoch: 25 May)

Event Time Altitude Azimuth Distance (km) Brightness Sun altitude
Rises 06:57:23 0° 3° (N) 3,245 6.1 -7.6°
Reaches altitude 10° 07:00:36 10° 342° (NNW) 2,314 5.1 -7.1°
Maximum altitude 07:03:27 15° 307° (NW) 1,965 4.5 -6.7°
Drops below altitude 10° 07:06:18 10° 273° (W) 2,307 4.9 -6.3°
Sets 07:09:31 0° 251° (WSW) 3,229 5.8 -5.8°
